EINSTEIN PROBE (58753 NORAD) Tracking and Keplerian Element Data

This shows tracking and keplerian element data for the satellite.

Feedback or suggestion? Click here.




ElementValue
Catalog58753
NameEINSTEIN PROBE
Epoch Orbit53
Epoch Day12.81998995
Epoch Year2024
RAAN183.46
Inclination28.9961
Eccentricity0.0011164
Argument of Perigee326.4345
Mean Anonmoly33.5543
Mean Motion14.93065937
Decay Rate4.026E-05
L11 58753U 24007A 24012.81998995 .00004026 00000+0 36460-3 0 9991
L22 58753 28.9961 183.4600 0011164 326.4345 33.5543 14.93065937 535



Live tracking and technical data element details for EINSTEIN PROBE (NORAD 58753). EINSTEIN PROBE can be tracked NOW for your location showing map with azimuth and elevation plus other details from your city location.







IsCatalogInMostPopularTable: catalog: 58753, numindb: 30
Update: records affected: 1



GetName: 58753 EINSTEIN PROBE

Hit Count: updated at: Wed, 17 Apr 2024 02:56:51 GMT